STARLINK-34967, 65177

Orbit data source: Space-Track

STARLINK-34967, 65177 is a payload satellite owned by SpaceX/Seattle (US) in SSO that was launched on Thu, 14 Aug 2025 UTC via an FALCON 9 launch vehicle from the Air Force Western Test Range (AFWTR). Payload-class satellites include a variety of spacecraft equipped with specific instruments for various scientific and technological missions. These include communications satellites like Starlink; space stations such as the ISS; scientific satellites like the Hubble; Earth observation satellites from companies like Planet Labs, Umbra, and HawkEye 360; GPS; miniature CubeSats for education and research; and military/defense satellites.

Loading next visibility...
Identifier
65177, 2025-175D
Orbit
SSO
Country
Flag of USUS
Related business
Manufacturer
SpaceX/Seattle
Mission
Operational Commercial Communications
Bus & Motor
STARLINK V2MO, Unknown motor
Mass
575 kg wet, ~530 kg dry
Launch date (UTC)
2025-08-14 (10 months ago)
Launch vehicle
FALCON 9
Launch site
Air Force Western Test Range (AFWTR)
Object type
Payload
Rocket body
Debris
Shape & HBR
Box + 2 Pan, 17.7 m
Radar Cross Section
36.964 m², Large (>1 m²)

Expand to show TLE details & history
Last TLE update: 15 hours ago

TLE from 15 hours ago
0 STARLINK-34967
1 65177U 25175D   26171.21409280  .00003567  00000-0  25101-3 0  9992
2 65177  97.3410  42.5615 0002146  90.7660 269.3813 15.05656838 48063
Epoch: 2026-06-20T05:08Z
TLE epoch observation values (Epoch: 2026-06-20T05:08:17.617Z)
Latitude
-0.00009°
Longitude
57.05618°
Altitude
552.579 km
Speed
7.585 km/s
True Right ascension
02h 50m 14s
True Declination
0° 00' 00"
Sunlit
Object was in daylight at epoch
Visualization orbit readout
Latitude
Unknown
Longitude
Unknown
Altitude
Unknown
Speed
Unknown
Apparent Right ascension
Unknown
Apparent Declination
Unknown
Sunlit
N/A
Visualization observer readout
Local Sidereal Time
07:16:14
Azimuth
Unknown
Elevation
Unknown
Doppler factor
Unknown
Orbital elements
Apogee altitude
547.958 km
Perigee altitude
544.986 km
Semi-major axis
6,924.609 km
Eccentricity
0.00021
Inclination
97.341°
RAAN
42.5615°
Arg. of periapsis
90.766°
True anomaly
269.35671°
Mean anomaly
269.3813°
Eccentric anomaly
269.36901°
Mean motion
3.76661 °/min
Orbital period
95.58 mins
BSTAR
0.00025101
Loading maneuver chart data...
Computing Atmospheric mass density...
Loading historical data...
Loading historical data...
Loading historical data...
Loading historical data...
Loading historical data...
Loading historical data...
Loading historical data...

Documentation

Showing up to 5 results
|